Showing default

OPS 0856, 2403

Orbit data source: Space-Track

OPS 0856, 2403 is a payload satellite owned by USAF SSD (US) in LEO that was launched on Fri, 19 Aug 1966 UTC via an ATLAS SLV-3 AGENA D launch vehicle from the Air Force Western Test Range (AFWTR). Payload-class satellites include a variety of spacecraft equipped with specific instruments for various scientific and technological missions. These include communications satellites like Starlink; space stations such as the ISS; scientific satellites like the Hubble; Earth observation satellites from companies like Planet Labs, Umbra, and HawkEye 360; GPS; miniature CubeSats for education and research; and military/defense satellites.

Loading next visibility...
Identifier
2403, 1966-077A
Orbit
LEO
Country
Flag of USUS
Related business
Manufacturer
LMSC
Mission
Spacecraft
Bus & Motor
MIDAS, Unknown motor
Mass
~2,000 kg wet, ~1,000 kg dry
Launch date (UTC)
1966-08-19 (59 years ago)
Launch vehicle
ATLAS SLV-3 AGENA D
Launch site
Air Force Western Test Range (AFWTR)
Object type
Payload
Rocket body
Debris
Shape & HBR
Unknown
Radar Cross Section
Large (>1 m²)

Expand to show TLE details & history
Last TLE update: 2 days ago

TLE from 2 days ago
0 OPS 0856
1 02403U 66077A   25304.87311500 -.00000042  00000-0 -21394-1 0  9992
2 02403  90.3329 273.7198 0008365 314.1224  45.8940  8.59844399506834
Epoch: 2025-10-31T20:57Z
TLE epoch observation values (Epoch: 2025-10-31T20:57:17.135Z)
Latitude
0.00005°
Longitude
-81.0129°
Altitude
3,682.61 km
Speed
6.297 km/s
True Right ascension
18h 14m 52s
True Declination
0° 00' 00"
Sunlit
Object was in daylight at epoch
Visualization orbit readout
Latitude
Unknown
Longitude
Unknown
Altitude
Unknown
Speed
Unknown
Apparent Right ascension
Unknown
Apparent Declination
Unknown
Sunlit
N/A
Visualization observer readout
Local Sidereal Time
10:19:13
Azimuth
Unknown
Elevation
Unknown
Doppler factor
Unknown
Orbital elements
Apogee altitude
3,692.515 km
Perigee altitude
3,675.681 km
Semi-major axis
10,062.235 km
Eccentricity
0.00084
Inclination
90.3329°
RAAN
273.7198°
Arg. of periapsis
314.1224°
True anomaly
45.96288°
Mean anomaly
45.894°
Eccentric anomaly
45.92843°
Mean motion
2.15031 °/min
Orbital period
167.42 mins
BSTAR
-0.021394
Loading maneuver chart data...
Computing Atmospheric mass density...
Loading historical data...
Loading historical data...
Loading historical data...
Loading historical data...
Loading historical data...
Loading historical data...
Loading historical data...

Documentation

Showing up to 5 results
|